Time,TemperatureF,DewpointF,PressureIn,WindDirection,WindDirectionDegrees,WindSpeedMPH,WindSpeedGustMPH,Humidity,HourlyPrecipIn,Conditions,Clouds,dailyrainin,SoftwareType,DateUTC
2013-03-28 00:03:00,-999.0,-99.9,30.22,NNE,31,10.0,17.0,-999,-99.99,,,-99.99,,2013-03-28 08:03:00,
2013-03-28 00:12:00,17.0,-99.9,30.22,NNE,25,10.0,15.0,-999,-99.99,,,-99.99,,2013-03-28 08:12:00,
2013-03-28 00:22:00,-999.0,-99.9,30.21,NNE,32,9.0,16.0,-999,-99.99,,,-99.99,,2013-03-28 08:22:00,
2013-03-28 00:33:00,-999.0,-99.9,30.21,NNE,27,8.0,17.0,-999,-99.99,,,-99.99,,2013-03-28 08:33:00,
2013-03-28 00:42:00,-999.0,-99.9,30.21,NNE,29,11.0,21.0,-999,-99.99,,,-99.99,,2013-03-28 08:42:00,
2013-03-28 00:52:00,17.0,-99.9,30.21,NE,35,9.0,16.0,-999,-99.99,,,-99.99,,2013-03-28 08:52:00,
2013-03-28 01:02:00,-999.0,-99.9,30.21,NNE,28,10.0,18.0,-999,-99.99,,,-99.99,,2013-03-28 09:02:00,
2013-03-28 01:12:00,-999.0,-99.9,30.20,NNE,24,10.0,14.0,-999,-99.99,,,-99.99,,2013-03-28 09:12:00,
2013-03-28 01:22:00,17.0,-99.9,30.20,NE,35,9.0,14.0,-999,-99.99,,,-99.99,,2013-03-28 09:22:00,
2013-03-28 01:33:00,-999.0,-99.9,30.20,NNE,32,11.0,18.0,-999,-99.99,,,-99.99,,2013-03-28 09:33:00,
2013-03-28 01:42:00,-999.0,-99.9,30.19,NNE,29,7.0,17.0,-999,-99.99,,,-99.99,,2013-03-28 09:42:00,
2013-03-28 01:52:00,-999.0,-99.9,30.19,NE,35,13.0,17.0,-999,-99.99,,,-99.99,,2013-03-28 09:52:00,
2013-03-28 02:03:00,-999.0,-99.9,30.19,NNE,29,10.0,17.0,-999,-99.99,,,-99.99,,2013-03-28 10:03:00,
2013-03-28 02:12:00,-999.0,-99.9,30.19,NNE,29,10.0,15.0,-999,-99.99,,,-99.99,,2013-03-28 10:12:00,
2013-03-28 02:22:00,17.0,-99.9,30.19,NE,35,11.0,21.0,-999,-99.99,,,-99.99,,2013-03-28 10:22:00,
2013-03-28 02:33:00,-999.0,-99.9,30.19,NNE,25,10.0,18.0,-999,-99.99,,,-99.99,,2013-03-28 10:33:00,
2013-03-28 02:43:00,17.0,-99.9,30.18,NE,36,13.0,19.0,-999,-99.99,,,-99.99,,2013-03-28 10:43:00,
2013-03-28 02:53:00,-999.0,-99.9,30.18,NNE,33,10.0,18.0,-999,-99.99,,,-99.99,,2013-03-28 10:53:00,
2013-03-28 03:03:00,-999.0,-99.9,30.18,NNE,32,15.0,20.0,-999,-99.99,,,-99.99,,2013-03-28 11:03:00,
2013-03-28 03:12:00,-999.0,-99.9,30.18,NE,39,10.0,20.0,-999,-99.99,,,-99.99,,2013-03-28 11:12:00,
2013-03-28 03:23:00,17.0,-99.9,30.18,NE,38,11.0,19.0,-999,-99.99,,,-99.99,,2013-03-28 11:23:00,
2013-03-28 03:32:00,-999.0,-99.9,30.19,NNE,27,10.0,16.0,-999,-99.99,,,-99.99,,2013-03-28 11:32:00,
2013-03-28 03:43:00,17.0,-99.9,30.18,NNE,29,12.0,17.0,-999,-99.99,,,-99.99,,2013-03-28 11:43:00,
2013-03-28 03:52:00,-999.0,-99.9,30.18,NE,37,11.0,15.0,-999,-99.99,,,-99.99,,2013-03-28 11:52:00,
2013-03-28 04:02:00,-999.0,-99.9,30.18,NE,34,8.0,15.0,-999,-99.99,,,-99.99,,2013-03-28 12:02:00,
2013-03-28 04:12:00,-999.0,-99.9,30.17,NE,36,11.0,15.0,-999,-99.99,,,-99.99,,2013-03-28 12:12:00,
2013-03-28 04:22:00,-999.0,-99.9,30.17,NE,35,9.0,18.0,-999,-99.99,,,-99.99,,2013-03-28 12:22:00,
2013-03-28 04:33:00,-999.0,-99.9,30.17,NE,43,12.0,19.0,-999,-99.99,,,-99.99,,2013-03-28 12:33:00,
2013-03-28 04:42:00,-999.0,-99.9,30.17,NE,36,11.0,18.0,-999,-99.99,,,-99.99,,2013-03-28 12:42:00,
2013-03-28 04:52:00,17.0,-99.9,30.17,NE,42,12.0,16.0,-999,-99.99,,,-99.99,,2013-03-28 12:52:00,
2013-03-28 05:02:00,-999.0,-99.9,30.16,NE,41,14.0,20.0,-999,-99.99,,,-99.99,,2013-03-28 13:02:00,
2013-03-28 05:12:00,17.0,-99.9,30.16,NE,41,13.0,18.0,-999,-99.99,,,-99.99,,2013-03-28 13:12:00,
2013-03-28 05:22:00,-999.0,-99.9,30.16,NE,43,10.0,19.0,-999,-99.99,,,-99.99,,2013-03-28 13:22:00,
2013-03-28 05:32:00,-999.0,-99.9,30.16,NE,45,11.0,17.0,-999,-99.99,,,-99.99,,2013-03-28 13:32:00,
2013-03-28 05:42:00,-999.0,-99.9,30.15,NE,51,17.0,21.0,-999,-99.99,,,-99.99,,2013-03-28 13:42:00,
2013-03-28 05:52:00,16.0,-99.9,30.15,NE,56,14.0,21.0,-999,-99.99,,,-99.99,,2013-03-28 13:52:00,
2013-03-28 06:02:00,-999.0,-99.9,30.15,NE,47,15.0,24.0,-999,-99.99,,,-99.99,,2013-03-28 14:02:00,
2013-03-28 06:12:00,17.0,-99.9,30.15,NE,51,15.0,25.0,-999,-99.99,,,-99.99,,2013-03-28 14:12:00,
2013-03-28 06:23:00,-999.0,-99.9,30.14,NE,56,17.0,20.0,-999,-99.99,,,-99.99,,2013-03-28 14:23:00,
2013-03-28 06:33:00,-999.0,-99.9,30.14,NE,49,15.0,19.0,-999,-99.99,,,-99.99,,2013-03-28 14:33:00,
2013-03-28 06:42:00,-999.0,-99.9,30.13,NE,47,13.0,20.0,-999,-99.99,,,-99.99,,2013-03-28 14:42:00,
2013-03-28 06:52:00,-999.0,-99.9,30.13,NE,40,15.0,20.0,-999,-99.99,,,-99.99,,2013-03-28 14:52:00,
2013-03-28 07:02:00,-999.0,-99.9,30.13,NE,40,14.0,21.0,-999,-99.99,,,-99.99,,2013-03-28 15:02:00,
2013-03-28 07:12:00,-999.0,-99.9,30.13,NE,44,15.0,23.0,-999,-99.99,,,-99.99,,2013-03-28 15:12:00,
2013-03-28 07:22:00,17.0,-99.9,30.13,NE,39,15.0,19.0,-999,-99.99,,,-99.99,,2013-03-28 15:22:00,
2013-03-28 07:33:00,-999.0,-99.9,30.13,NE,42,10.0,18.0,-999,-99.99,,,-99.99,,2013-03-28 15:33:00,
2013-03-28 07:43:00,17.0,-99.9,30.12,NE,37,15.0,22.0,-999,-99.99,,,-99.99,,2013-03-28 15:43:00,
2013-03-28 07:53:00,-999.0,-99.9,30.12,NE,41,14.0,19.0,-999,-99.99,,,-99.99,,2013-03-28 15:53:00,
2013-03-28 08:03:00,-999.0,-99.9,30.12,NE,49,13.0,20.0,-999,-99.99,,,-99.99,,2013-03-28 16:03:00,
2013-03-28 08:13:00,-999.0,-99.9,30.11,NE,53,15.0,22.0,-999,-99.99,,,-99.99,,2013-03-28 16:13:00,
2013-03-28 08:23:00,18.0,-99.9,30.11,NE,46,15.0,24.0,-999,-99.99,,,-99.99,,2013-03-28 16:23:00,
2013-03-28 08:32:00,-999.0,-99.9,30.11,NE,50,16.0,22.0,-999,-99.99,,,-99.99,,2013-03-28 16:32:00,
2013-03-28 08:42:00,18.0,-99.9,30.10,NE,54,18.0,23.0,-999,-99.99,,,-99.99,,2013-03-28 16:42:00,
2013-03-28 08:52:00,-999.0,-99.9,30.10,NE,52,18.0,25.0,-999,-99.99,,,-99.99,,2013-03-28 16:52:00,
2013-03-28 09:02:00,-999.0,-99.9,30.10,NE,49,17.0,24.0,-999,-99.99,,,-99.99,,2013-03-28 17:02:00,
2013-03-28 09:12:00,-999.0,-99.9,30.09,NE,50,18.0,26.0,-999,-99.99,,,-99.99,,2013-03-28 17:12:00,
2013-03-28 09:22:00,18.0,-99.9,30.09,NE,54,17.0,27.0,-999,-99.99,,,-99.99,,2013-03-28 17:22:00,
2013-03-28 09:32:00,-999.0,-99.9,30.09,NE,55,17.0,25.0,-999,-99.99,,,-99.99,,2013-03-28 17:32:00,
2013-03-28 09:42:00,18.0,-99.9,30.09,ENE,58,20.0,26.0,-999,-99.99,,,-99.99,,2013-03-28 17:42:00,
2013-03-28 09:52:00,-999.0,-99.9,30.09,NE,56,21.0,29.0,-999,-99.99,,,-99.99,,2013-03-28 17:52:00,
2013-03-28 10:03:00,-999.0,-99.9,30.09,NE,54,21.0,28.0,-999,-99.99,,,-99.99,,2013-03-28 18:03:00,
2013-03-28 10:12:00,-999.0,-99.9,30.09,NE,56,20.0,26.0,-999,-99.99,,,-99.99,,2013-03-28 18:12:00,
2013-03-28 10:22:00,-999.0,-99.9,30.09,ENE,58,21.0,29.0,-999,-99.99,,,-99.99,,2013-03-28 18:22:00,
2013-03-28 10:32:00,-999.0,-99.9,30.08,ENE,58,23.0,30.0,-999,-99.99,,,-99.99,,2013-03-28 18:32:00,
2013-03-28 10:42:00,-999.0,-99.9,30.09,NE,56,20.0,29.0,-999,-99.99,,,-99.99,,2013-03-28 18:42:00,
2013-03-28 10:52:00,19.0,-99.9,30.08,NE,56,21.0,26.0,-999,-99.99,,,-99.99,,2013-03-28 18:52:00,
2013-03-28 11:02:00,-999.0,-99.9,30.08,NE,53,20.0,28.0,-999,-99.99,,,-99.99,,2013-03-28 19:02:00,
2013-03-28 11:12:00,-999.0,-99.9,30.08,ENE,60,17.0,29.0,-999,-99.99,,,-99.99,,2013-03-28 19:12:00,
2013-03-28 11:23:00,-999.0,-99.9,30.08,ENE,57,23.0,30.0,-999,-99.99,,,-99.99,,2013-03-28 19:23:00,
2013-03-28 11:33:00,-999.0,-99.9,30.07,NE,56,20.0,29.0,-999,-99.99,,,-99.99,,2013-03-28 19:33:00,
2013-03-28 11:43:00,-999.0,-99.9,30.07,NE,55,19.0,29.0,-999,-99.99,,,-99.99,,2013-03-28 19:43:00,
2013-03-28 11:52:00,20.0,-99.9,30.07,ENE,58,21.0,28.0,-999,-99.99,,,-99.99,,2013-03-28 19:52:00,
2013-03-28 12:03:00,-999.0,-99.9,30.06,ENE,58,22.0,29.0,-999,-99.99,,,-99.99,,2013-03-28 20:03:00,
2013-03-28 12:12:00,20.0,-99.9,30.07,NE,56,23.0,31.0,-999,-99.99,,,-99.99,,2013-03-28 20:12:00,
2013-03-28 12:22:00,-999.0,-99.9,30.07,NE,56,18.0,31.0,-999,-99.99,,,-99.99,,2013-03-28 20:22:00,
2013-03-28 12:33:00,-999.0,-99.9,30.06,NE,52,24.0,32.0,-999,-99.99,,,-99.99,,2013-03-28 20:33:00,
2013-03-28 12:42:00,-999.0,-99.9,30.06,ENE,60,22.0,27.0,-999,-99.99,,,-99.99,,2013-03-28 20:42:00,
2013-03-28 12:53:00,20.0,-99.9,30.06,ENE,60,27.0,32.0,-999,-99.99,,,-99.99,,2013-03-28 20:53:00,
2013-03-28 13:03:00,-999.0,-99.9,30.06,NE,55,23.0,30.0,-999,-99.99,,,-99.99,,2013-03-28 21:03:00,
2013-03-28 13:12:00,-999.0,-99.9,30.06,NE,54,22.0,29.0,-999,-99.99,,,-99.99,,2013-03-28 21:12:00,
2013-03-28 13:22:00,22.0,-99.9,30.06,NE,50,16.0,29.0,-999,-99.99,,,-99.99,,2013-03-28 21:22:00,
2013-03-28 13:33:00,-999.0,-99.9,30.05,NE,55,18.0,28.0,-999,-99.99,,,-99.99,,2013-03-28 21:33:00,
2013-03-28 13:43:00,-999.0,-99.9,30.05,ENE,57,19.0,26.0,-999,-99.99,,,-99.99,,2013-03-28 21:43:00,
2013-03-28 13:53:00,-999.0,-99.9,30.04,NE,56,22.0,28.0,-999,-99.99,,,-99.99,,2013-03-28 21:53:00,
2013-03-28 14:03:00,-999.0,-99.9,30.04,ENE,59,20.0,27.0,-999,-99.99,,,-99.99,,2013-03-28 22:03:00,
2013-03-28 14:13:00,-999.0,-99.9,30.03,NE,56,20.0,26.0,-999,-99.99,,,-99.99,,2013-03-28 22:13:00,
2013-03-28 14:23:00,22.0,-99.9,30.04,NE,48,17.0,27.0,-999,-99.99,,,-99.99,,2013-03-28 22:23:00,
2013-03-28 14:32:00,-999.0,-99.9,30.03,NE,54,19.0,32.0,-999,-99.99,,,-99.99,,2013-03-28 22:32:00,
2013-03-28 14:42:00,23.0,-99.9,30.03,NE,48,17.0,26.0,-999,-99.99,,,-99.99,,2013-03-28 22:42:00,
2013-03-28 14:53:00,-999.0,-99.9,30.03,NE,50,17.0,25.0,-999,-99.99,,,-99.99,,2013-03-28 22:53:00,
2013-03-28 15:03:00,-999.0,-99.9,30.02,NE,53,21.0,26.0,-999,-99.99,,,-99.99,,2013-03-28 23:03:00,
2013-03-28 15:12:00,-999.0,-99.9,30.02,NE,45,18.0,24.0,-999,-99.99,,,-99.99,,2013-03-28 23:12:00,
2013-03-28 15:22:00,23.0,-99.9,30.02,NE,45,17.0,24.0,-999,-99.99,,,-99.99,,2013-03-28 23:22:00,
2013-03-28 15:32:00,-999.0,-99.9,30.01,NE,41,17.0,23.0,-999,-99.99,,,-99.99,,2013-03-28 23:32:00,
2013-03-28 15:42:00,23.0,-99.9,30.01,NE,39,16.0,27.0,-999,-99.99,,,-99.99,,2013-03-28 23:42:00,
2013-03-28 15:53:00,-999.0,-99.9,30.01,NE,39,15.0,26.0,-999,-99.99,,,-99.99,,2013-03-28 23:53:00,
2013-03-28 16:03:00,-999.0,-99.9,30.01,NE,36,19.0,25.0,-999,-99.99,,,-99.99,,2013-03-29 00:03:00,
2013-03-28 16:12:00,-999.0,-99.9,30.00,NE,36,14.0,21.0,-999,-99.99,,,-99.99,,2013-03-29 00:12:00,
2013-03-28 16:22:00,23.0,-99.9,30.00,NE,36,20.0,28.0,-999,-99.99,,,-99.99,,2013-03-29 00:22:00,
2013-03-28 16:33:00,-999.0,-99.9,29.99,NE,42,19.0,24.0,-999,-99.99,,,-99.99,,2013-03-29 00:33:00,
2013-03-28 16:42:00,-999.0,-99.9,29.99,NE,39,17.0,26.0,-999,-99.99,,,-99.99,,2013-03-29 00:42:00,
2013-03-28 16:52:00,24.0,-99.9,29.98,NE,38,16.0,24.0,-999,-99.99,,,-99.99,,2013-03-29 00:52:00,
2013-03-28 17:02:00,-999.0,-99.9,29.98,NE,36,14.0,27.0,-999,-99.99,,,-99.99,,2013-03-29 01:02:00,
2013-03-28 17:12:00,-999.0,-99.9,29.98,NE,45,17.0,26.0,-999,-99.99,,,-99.99,,2013-03-29 01:12:00,
2013-03-28 17:23:00,-999.0,-99.9,29.98,NE,37,16.0,23.0,-999,-99.99,,,-99.99,,2013-03-29 01:23:00,
2013-03-28 17:33:00,-999.0,-99.9,29.97,NE,37,21.0,29.0,-999,-99.99,,,-99.99,,2013-03-29 01:33:00,
2013-03-28 17:42:00,-999.0,-99.9,29.97,NE,45,18.0,30.0,-999,-99.99,,,-99.99,,2013-03-29 01:42:00,
2013-03-28 17:53:00,25.0,-99.9,29.97,NE,47,14.0,23.0,-999,-99.99,,,-99.99,,2013-03-29 01:53:00,
2013-03-28 18:03:00,-999.0,-99.9,29.96,NE,44,17.0,24.0,-999,-99.99,,,-99.99,,2013-03-29 02:03:00,
2013-03-28 18:12:00,25.0,-99.9,29.96,NE,47,21.0,29.0,-999,-99.99,,,-99.99,,2013-03-29 02:12:00,
2013-03-28 18:22:00,-999.0,-99.9,29.96,NE,45,17.0,22.0,-999,-99.99,,,-99.99,,2013-03-29 02:22:00,
2013-03-28 18:32:00,-999.0,-99.9,29.95,NE,51,20.0,25.0,-999,-99.99,,,-99.99,,2013-03-29 02:32:00,
2013-03-28 18:42:00,-999.0,-99.9,29.95,NE,45,18.0,29.0,-999,-99.99,,,-99.99,,2013-03-29 02:42:00,
2013-03-28 18:53:00,26.0,-99.9,29.95,NE,50,18.0,26.0,-999,-99.99,,,-99.99,,2013-03-29 02:53:00,
2013-03-28 19:02:00,-999.0,-99.9,29.94,NE,47,21.0,31.0,-999,-99.99,,,-99.99,,2013-03-29 03:02:00,
2013-03-28 19:12:00,-999.0,-99.9,29.94,NE,49,19.0,28.0,-999,-99.99,,,-99.99,,2013-03-29 03:12:00,
2013-03-28 19:22:00,26.0,-99.9,29.94,NE,45,18.0,24.0,-999,-99.99,,,-99.99,,2013-03-29 03:22:00,
2013-03-28 19:33:00,-999.0,-99.9,29.93,NE,54,21.0,28.0,-999,-99.99,,,-99.99,,2013-03-29 03:33:00,
2013-03-28 19:43:00,-999.0,-99.9,29.93,NE,45,19.0,30.0,-999,-99.99,,,-99.99,,2013-03-29 03:43:00,
2013-03-28 19:53:00,-999.0,-99.9,29.93,NE,45,18.0,28.0,-999,-99.99,,,-99.99,,2013-03-29 03:53:00,
2013-03-28 20:03:00,-999.0,-99.9,29.93,NE,50,18.0,29.0,-999,-99.99,,,-99.99,,2013-03-29 04:03:00,
2013-03-28 20:13:00,-999.0,-99.9,29.93,NE,44,17.0,29.0,-999,-99.99,,,-99.99,,2013-03-29 04:13:00,
2013-03-28 20:23:00,26.0,-99.9,29.93,NE,38,18.0,21.0,-999,-99.99,,,-99.99,,2013-03-29 04:23:00,
2013-03-28 20:33:00,-999.0,-99.9,29.92,NE,42,19.0,26.0,-999,-99.99,,,-99.99,,2013-03-29 04:33:00,
2013-03-28 20:43:00,27.0,-99.9,29.92,NE,46,20.0,26.0,-999,-99.99,,,-99.99,,2013-03-29 04:43:00,
2013-03-28 20:53:00,-999.0,-99.9,29.92,NE,40,18.0,30.0,-999,-99.99,,,-99.99,,2013-03-29 04:53:00,
2013-03-28 21:03:00,-999.0,-99.9,29.91,NE,43,17.0,25.0,-999,-99.99,,,-99.99,,2013-03-29 05:03:00,
2013-03-28 21:13:00,-999.0,-99.9,29.92,NE,36,17.0,27.0,-999,-99.99,,,-99.99,,2013-03-29 05:13:00,
2013-03-28 21:23:00,27.0,-99.9,29.92,NE,40,17.0,26.0,-999,-99.99,,,-99.99,,2013-03-29 05:23:00,
2013-03-28 21:33:00,-999.0,-99.9,29.93,NE,39,17.0,24.0,-999,-99.99,,,-99.99,,2013-03-29 05:33:00,
2013-03-28 21:43:00,27.0,-99.9,29.92,NE,37,15.0,23.0,-999,-99.99,,,-99.99,,2013-03-29 05:43:00,
2013-03-28 21:53:00,-999.0,-99.9,29.92,NE,48,17.0,25.0,-999,-99.99,,,-99.99,,2013-03-29 05:53:00,
2013-03-28 22:03:00,-999.0,-99.9,29.92,NE,41,17.0,24.0,-999,-99.99,,,-99.99,,2013-03-29 06:03:00,
2013-03-28 22:13:00,-999.0,-99.9,29.92,NNE,32,17.0,24.0,-999,-99.99,,,-99.99,,2013-03-29 06:13:00,
2013-03-28 22:23:00,28.0,-99.9,29.92,NE,39,17.0,24.0,-999,-99.99,,,-99.99,,2013-03-29 06:23:00,
2013-03-28 22:32:00,-999.0,-99.9,29.91,NNE,33,15.0,27.0,-999,-99.99,,,-99.99,,2013-03-29 06:32:00,
2013-03-28 22:42:00,-999.0,-99.9,29.90,NE,45,18.0,26.0,-999,-99.99,,,-99.99,,2013-03-29 06:42:00,
2013-03-28 22:52:00,28.0,-99.9,29.90,NE,51,20.0,25.0,-999,-99.99,,,-99.99,,2013-03-29 06:52:00,
2013-03-28 23:03:00,-999.0,-99.9,29.90,NE,42,20.0,25.0,-999,-99.99,,,-99.99,,2013-03-29 07:03:00,
2013-03-28 23:12:00,-999.0,-99.9,29.89,NE,51,19.0,25.0,-999,-99.99,,,-99.99,,2013-03-29 07:12:00,
2013-03-28 23:22:00,-999.0,-99.9,29.89,NE,51,21.0,29.0,-999,-99.99,,,-99.99,,2013-03-29 07:22:00,
2013-03-28 23:32:00,-999.0,-99.9,29.88,NE,49,17.0,25.0,-999,-99.99,,,-99.99,,2013-03-29 07:32:00,
2013-03-28 23:42:00,-999.0,-99.9,29.88,NE,49,21.0,28.0,-999,-99.99,,,-99.99,,2013-03-29 07:42:00,
2013-03-28 23:52:00,28.0,-99.9,29.88,NE,52,18.0,27.0,-999,-99.99,,,-99.99,,2013-03-29 07:52:00,